Location: Cosy Dell
(34.2789°N, 117.4537°W)
Time: 12:24:39
(UTC+00:00)

Cosmos 2233 Rocket - Pass Details

Date: 14 July 2020
Orbit: 954 x 990 km, 82.9° (Epoch: 08 August)

Event Time Altitude Azimuth Distance (km) Brightness Sun altitude
Exits shadow 09:38:04 45° 123° (ESE) 1,290 4.5 -29.1°
Maximum altitude 09:39:10 51° 91° (E) 1,208 4.5 -29.0°
Drops below altitude 10° 09:45:10 10° 18° (NNE) 2,726 7.3 -28.4°
Sets 09:47:45 0° 13° (NNE) 3,683 8.1 -28.1°
